Weather Roundup
Issued by NWS

Home | Current Version | Previous Version | Graphics & Text | Print | Product List | Glossary Off
Versions: 1 2 3 4 5 6 7 8 9 10 11 12 13 14 15 16 17 18 19 20 21 22 23 24 25 26 27 28 29 30 31 32 33 34 35 36 37 38 39 40 41 42 43 44 45 46 47 48 49 50

000
NZUS93 KARX 250059
HRRWXR

CURRENT HOURLY OBSERVATIONS ACROSS
MUCH OF THE UPPER MISSISSIPPI VALLEY
NATIONAL WEATHER SERVICE LA CROSSE WI
800 PM CDT SUN MAY 24 2015


...SOUTHEAST MINNESOTA...


CITY           SKY/WX    TMP DP  RH WIND       PRES   REMARKS
ROCHESTER      CLOUDY    59  58  96 SE13      29.85F FOG
ROCHESTER/MAYO CLOUDY    58  58 100 E9        29.85S
WINONA         LGT RAIN  59  57  94 SE6       29.86F
AUSTIN         LGT RAIN  61  59  94 SE8       29.81F
ALBERT LEA     CLOUDY    61  61 100 SE7       29.80F FOG
DODGE CENTER   DRIZZLE   59  57  94 E9        29.83F
PRESTON        CLOUDY    58  57  96 SE7       29.86R FOG
OWATONNA       DRIZZLE   59  57  94 E9        29.82F
FARIBAULT      DRIZZLE   59  57  94 NE7       29.83F
$$

...ELSEWHERE IN MINNESOTA...


CITY           SKY/WX    TMP DP  RH WIND       PRES   REMARKS
MINNEAPOLIS    DRIZZLE   60  58  92 E10       29.85F
INTNL FALLS    CLOUDY    68  49  50 CALM      29.91F
DULUTH         LGT RAIN  63  54  72 S12       29.95S
RED WING       DRIZZLE   57  57 100 E9        29.84F
REDWOOD FALLS  LGT RAIN  60  58  92 E8        29.81F FOG
MANKATO        CLOUDY    59  57  94 E10       29.81F
WORTHINGTON    CLOUDY    59  57  94 NE9       29.79F
FAIRMONT       CLOUDY    61  55  82 E7        29.78F
$$

...SOUTHWEST WISCONSIN...


CITY           SKY/WX    TMP DP  RH WIND       PRES   REMARKS
LA CROSSE      CLOUDY    61  57  87 SE6       29.87F
PRAIRIE DU CHI LGT RAIN  62  59  88 E3        29.85F
BOSCOBEL       CLOUDY    61  58  90 NE3       29.88S FOG
LONE ROCK      NOT AVBL
PLATTEVILLE    CLOUDY    62  61  96 E13       29.87F
FORT MC COY    LGT RAIN  58  56  92 E7        29.90F
VIROQUA        CLOUDY    58  58 100 E13       29.88F
WIS DELLS      CLOUDY    56  54  91 E9        29.92F
$$

...ELSEWHERE IN WISCONSIN...


CITY           SKY/WX    TMP DP  RH WIND       PRES   REMARKS
MILWAUKEE      CLOUDY    54  50  86 SE6       29.96F
MADISON        LGT RAIN  58  54  86 SE10      29.93R
GREEN BAY      RAIN      56  54  93 NE7       30.01F FOG
EAU CLAIRE     LGT RAIN  58  56  93 E8        29.89F
BLACK RVR FLS  DRIZZLE   58  58 100 E6        29.91S
MEDFORD        RAIN      56  55  97 E7        29.95F
WAUSAU         RAIN      57  55  93 E8G16     29.95F FOG
WIS RAPIDS     LGT RAIN  57  53  86 SE8       29.96F
MARSHFIELD     RAIN      57  54  89 SE14G21   29.94F FOG
RICE LAKE      LGT RAIN  58  56  91 E9        29.94F
$$

...NORTHEAST IOWA...


CITY           SKY/WX    TMP DP  RH WIND       PRES   REMARKS
DECORAH        CLOUDY    61  61 100 SE9G16    29.84F FOG
MASON CITY     CLOUDY    64  62  93 SE10      29.80F FOG
CHARLES CITY   CLOUDY    64  64 100 E7G13     29.82F FOG
OELWEIN        CLOUDY    64  64 100 SE10      29.83F FOG
$$

...ELSEWHERE IN IOWA...


CITY           SKY/WX    TMP DP  RH WIND       PRES   REMARKS
DES MOINES     CLOUDY    69  64  84 S9        29.78F
IOWA CITY      CLOUDY    67  66  97 SE3       29.83F
FORT DODGE     CLOUDY    64  63  94 S5        29.78F
$$

...NORTHERN ILLINOIS...


CITY           SKY/WX    TMP DP  RH WIND       PRES   REMARKS
CHICAGO-OHARE  MOCLDY    64  61  90 E7        29.93S
CHICAGO-MIDWAY MOCLDY    66  63  90 E6        29.94R
MOLINE         LGT RAIN  72  67  84 SW6       29.85R
ROCKFORD       CLOUDY    66  62  87 E10       29.89F FOG
PEORIA         MOCLDY    81  62  52 S14G25    29.88R
$$

NOTE: "FAIR" INDICATES FEW OR NO CLOUDS BELOW 12,000 FEET WITH NO
SIGNIFICANT WEATHER AND/OR OBSTRUCTIONS TO VISIBILITY. WIND
SPEEDS ARE IN MILES-PER-HOUR.



USA.gov is the U.S. government's official web portal to all federal, state and local government web resources and services.